sat.trackr.live / text

‹ back to catalog

SKYSAT-C3

NORAD 41774 · 2016-058E

PAYLOAD ACTIVE UNKNOWN

§ Identity

Operator
Country
US
Launch date
2016-09-16
Launch site
FRGUI
Launch vehicle
Mass (kg)
RCS (m²)
0.36

Purposes: earth_obs

External: N2YO · Heavens-Above · Gunter

§ Orbital elements

Epoch: 2026-09-20T00:42:19.960416Z

Period
92.52 min
Inclination
96.8957°
Eccentricity
0.0001634
Mean motion
15.56395662 rev/d
Perigee alt
397.0 km
Apogee alt
399.2 km
Semi-major
6,776.2 km
B*
2.6423e-4
RAAN
290.4487°
Arg perigee
79.6304°
Mean anomaly
280.5137°
Rev number
56,084

§ Raw data

SKYSAT-C31 41774U 16058E   26263.02939769  .00018567  00000+0  26423-3 0  99932 41774  96.8957 290.4487 0001634  79.6304 280.5137 15.56395662560843

JSON: /api/v1/satellites/41774 · /tle

For live sub-satellite position, see the globe view (requires WebGL).

§ Visibility from observer

Set your observer location to see the next 7 days of passes ≥ 10°. The values pass through the URL so the page stays shareable.

No JS? Fill the form by hand. The geolocation button needs JavaScript.